| time (UTC) | temp F | wind direction | speed MPH | gust MPH | rain 1hr in | rain 24hr in | rain mn in | humidity % | barometer mb |
| 20260902161754 | 58 | 164 | 0.0 | 3.0 | 0.00 | 0.00 | 0.00 | 68 | 1009.7 |
| 20260902160558 | 58 | 190 | 1.0 | 14.0 | 0.00 | 0.00 | 0.00 | 69 | 1009.9 |
| 20260902154035 | 58 | 142 | 0.0 | 0.0 | 0.00 | 0.00 | 0.00 | 70 | 1009.8 |
| 20260902151540 | 58 | 101 | 0.0 | 0.0 | 0.00 | 0.00 | 0.00 | 69 | 1009.2 |
| 20260902150406 | 58 | 355 | 0.0 | 0.0 | 0.00 | 0.00 | 0.00 | 68 | 1009.2 |
| 20260902145136 | 58 | 355 | 0.0 | 0.0 | 0.00 | 0.00 | 0.00 | 67 | 1009.2 |
| 20260902142624 | 57 | 28 | 0.0 | 0.0 | 0.00 | 0.00 | 0.00 | 69 | 1009.1 |
| 20260902141453 | 57 | 347 | 0.0 | 0.0 | 0.00 | 0.00 | 0.00 | 70 | 1009.1 |
| 20260902140247 | 56 | 74 | 0.0 | 0.0 | 0.00 | 0.00 | 0.00 | 69 | 1009.1 |
| 20260902135102 | 56 | 49 | 0.0 | 0.0 | 0.00 | 0.00 | 0.00 | 69 | 1009.0 |
| 20260902133857 | 56 | 49 | 0.0 | 0.0 | 0.00 | 0.00 | 0.00 | 69 | 1008.6 |
| 20260902132626 | 56 | 55 | 0.0 | 0.0 | 0.00 | 0.00 | 0.00 | 72 | 1008.3 |
| 20260902131424 | 56 | 23 | 0.0 | 0.0 | 0.00 | 0.00 | 0.00 | 69 | 1008.3 |
| 20260902123629 | 56 | 23 | 0.0 | 0.0 | 0.00 | 0.00 | 0.00 | 71 | 1007.8 |
| 20260902122430 | 57 | 23 | 0.0 | 0.0 | 0.00 | 0.00 | 0.00 | 71 | 1007.8 |
| 20260902115926 | 57 | 28 | 0.0 | 0.0 | 0.00 | 0.00 | 0.00 | 73 | 1007.6 |
| 20260902114731 | 57 | 28 | 0.0 | 0.0 | 0.00 | 0.00 | 0.00 | 74 | 1007.4 |
| 20260902113546 | 57 | 63 | 0.0 | 0.0 | 0.00 | 0.00 | 0.00 | 75 | 1007.5 |
| 20260902112329 | 57 | 144 | 0.0 | 0.0 | 0.00 | 0.00 | 0.00 | 76 | 1007.5 |
| 20260902111158 | 58 | 153 | 0.0 | 0.0 | 0.00 | 0.00 | 0.00 | 75 | 1007.3 |
| 20260902105928 | 57 | 153 | 0.0 | 0.0 | 0.00 | 0.00 | 0.00 | 79 | 1007.3 |
| 20260902103441 | 55 | 241 | 0.0 | 0.0 | 0.00 | 0.00 | 0.00 | 81 | 1007.3 |
| 20260902102214 | 56 | 241 | 0.0 | 0.0 | 0.00 | 0.00 | 0.00 | 81 | 1007.3 |
| 20260902101000 | 56 | 241 | 0.0 | 0.0 | 0.00 | 0.00 | 0.00 | 81 | 1007.2 |
| 20260902095827 | 57 | 241 | 0.0 | 0.0 | 0.00 | 0.00 | 0.00 | 80 | 1007.3 |
| 20260902094601 | 58 | 142 | 0.0 | 0.0 | 0.00 | 0.00 | 0.00 | 80 | 1007.1 |
| 20260902093419 | 58 | 142 | 0.0 | 0.0 | 0.00 | 0.00 | 0.00 | 80 | 1007.0 |
| 20260902092150 | 58 | 144 | 0.0 | 0.0 | 0.00 | 0.00 | 0.00 | 80 | 1007.0 |
| 20260902090919 | 58 | 146 | 0.0 | 0.0 | 0.00 | 0.00 | 0.00 | 80 | 1007.1 |
| 20260902085709 | 59 | 146 | 0.0 | 0.0 | 0.00 | 0.00 | 0.00 | 79 | 1007.1 |
| 20260902084453 | 59 | 146 | 0.0 | 0.0 | 0.00 | 0.00 | 0.00 | 79 | 1007.2 |
| 20260902083233 | 59 | 147 | 0.0 | 0.0 | 0.00 | 0.00 | 0.00 | 77 | 1007.0 |
| 20260902082046 | 59 | 147 | 0.0 | 0.0 | 0.00 | 0.00 | 0.00 | 75 | 1007.2 |
| 20260902075525 | 60 | 146 | 0.0 | 0.0 | 0.00 | 0.00 | 0.00 | 75 | 1007.1 |
| 20260902074330 | 60 | 147 | 0.0 | 0.0 | 0.00 | 0.00 | 0.00 | 75 | 1007.1 |
| 20260902073120 | 60 | 147 | 0.0 | 0.0 | 0.00 | 0.00 | 0.00 | 75 | 1007.0 |
| 20260902070600 | 61 | 148 | 0.0 | 0.0 | 0.00 | 0.00 | 0.00 | 73 | 1007.1 |
| 20260902065427 | 61 | 148 | 0.0 | 0.0 | 0.00 | 0.00 | 0.00 | 73 | 1007.2 |
| 20260902062838 | 61 | 148 | 0.0 | 0.0 | 0.00 | 0.00 | 0.00 | 71 | 1007.4 |
| 20260902054959 | 63 | 148 | 0.0 | 0.0 | 0.00 | 0.00 | 0.00 | 65 | 1007.2 |
| 20260902053730 | 64 | 148 | 0.0 | 0.0 | 0.00 | 0.00 | 0.00 | 62 | 1007.3 |
| 20260902052516 | 65 | 148 | 0.0 | 0.0 | 0.00 | 0.00 | 0.00 | 60 | 1007.4 |
| 20260902051239 | 65 | 148 | 0.0 | 0.0 | 0.00 | 0.00 | 0.00 | 59 | 1007.5 |
| 20260902050105 | 65 | 148 | 0.0 | 0.0 | 0.00 | 0.00 | 0.00 | 57 | 1007.5 |
| 20260902044926 | 65 | 150 | 0.0 | 0.0 | 0.00 | 0.00 | 0.00 | 57 | 1007.4 |
| 20260902043732 | 66 | 163 | 0.0 | 0.0 | 0.00 | 0.00 | 0.00 | 56 | 1007.4 |
| 20260902042540 | 66 | 163 | 0.0 | 0.0 | 0.00 | 0.00 | 0.00 | 56 | 1007.3 |
| 20260902041341 | 67 | 170 | 0.0 | 0.0 | 0.00 | 0.00 | 0.00 | 54 | 1007.3 |
| 20260902040203 | 68 | 171 | 0.0 | 0.0 | 0.00 | 0.00 | 0.00 | 53 | 1007.3 |
| 20260902035008 | 68 | 171 | 0.0 | 0.0 | 0.00 | 0.00 | 0.00 | 52 | 1007.3 |
| 20260902033804 | 69 | 171 | 0.0 | 0.0 | 0.00 | 0.00 | 0.00 | 52 | 1007.3 |
| 20260902032627 | 70 | 171 | 0.0 | 0.0 | 0.00 | 0.00 | 0.00 | 51 | 1007.3 |
| 20260902031454 | 71 | 171 | 0.0 | 0.0 | 0.00 | 0.00 | 0.00 | 48 | 1007.2 |
| 20260902030323 | 71 | 171 | 0.0 | 0.0 | 0.00 | 0.00 | 0.00 | 48 | 1007.2 |
| 20260902023803 | 72 | 174 | 0.0 | 0.0 | 0.00 | 0.00 | 0.00 | 47 | 1007.2 |
| 20260902022612 | 73 | 174 | 0.0 | 0.0 | 0.00 | 0.00 | 0.00 | 46 | 1007.1 |
| 20260902020120 | 73 | 174 | 0.0 | 0.0 | 0.00 | 0.00 | 0.00 | 45 | 1007.2 |
| 20260902014911 | 74 | 174 | 0.0 | 0.0 | 0.00 | 0.00 | 0.00 | 42 | 1007.2 |
| 20260902012335 | 74 | 173 | 0.0 | 0.0 | 0.00 | 0.00 | 0.00 | 41 | 1007.4 |
| 20260902011205 | 75 | 153 | 0.0 | 0.0 | 0.00 | 0.00 | 0.00 | 39 | 1007.4 |
| 20260902005957 | 75 | 127 | 0.0 | 0.0 | 0.00 | 0.00 | 0.00 | 40 | 1007.4 |
| 20260902004729 | 76 | 119 | 0.0 | 0.0 | 0.00 | 0.00 | 0.00 | 40 | 1007.5 |
| 20260902003503 | 74 | 145 | 0.0 | 0.0 | 0.00 | 0.00 | 0.00 | 40 | 1007.4 |
| 20260902002301 | 74 | 119 | 0.0 | 0.0 | 0.00 | 0.00 | 0.00 | 40 | 1007.3 |
| 20260902001044 | 74 | 169 | 0.0 | 0.0 | 0.00 | 0.00 | 0.00 | 40 | 1007.4 |
| 20260901235834 | 74 | 186 | 0.0 | 0.0 | 0.00 | 0.00 | 0.00 | 40 | 1007.5 |
| 20260901234607 | 74 | 176 | 0.0 | 0.0 | 0.00 | 0.00 | 0.00 | 41 | 1007.8 |
| 20260901233333 | 74 | 176 | 2.0 | 14.0 | 0.00 | 0.00 | 0.00 | 39 | 1008.0 |
| 20260901232125 | 75 | 142 | 0.0 | 10.0 | 0.00 | 0.00 | 0.00 | 40 | 1008.1 |
| 20260901230953 | 75 | 132 | 0.0 | 0.0 | 0.00 | 0.00 | 0.00 | 36 | 1008.1 |
| 20260901225814 | 76 | 155 | 0.0 | 0.0 | 0.00 | 0.00 | 0.00 | 36 | 1008.2 |
| 20260901224632 | 76 | 154 | 0.0 | 0.0 | 0.00 | 0.00 | 0.00 | 35 | 1008.1 |
| 20260901223413 | 76 | 123 | 0.0 | 0.0 | 0.00 | 0.00 | 0.00 | 35 | 1008.0 |
| 20260901222225 | 75 | 124 | 0.0 | 0.0 | 0.00 | 0.00 | 0.00 | 35 | 1008.1 |
| 20260901220952 | 75 | 147 | 1.0 | 0.0 | 0.00 | 0.00 | 0.00 | 35 | 1008.2 |
| 20260901215729 | 76 | 152 | 1.0 | 15.0 | 0.00 | 0.00 | 0.00 | 37 | 1008.3 |
| 20260901213201 | 76 | 182 | 0.0 | 6.0 | 0.00 | 0.00 | 0.00 | 33 | 1008.0 |
| 20260901212005 | 76 | 173 | 0.0 | 9.0 | 0.00 | 0.00 | 0.00 | 36 | 1008.2 |
| 20260901210804 | 76 | 175 | 0.0 | 0.0 | 0.00 | 0.00 | 0.00 | 40 | 1008.3 |
| 20260901205617 | 76 | 44 | 0.0 | 0.0 | 0.00 | 0.00 | 0.00 | 39 | 1008.2 |
| 20260901204406 | 76 | 45 | 0.0 | 0.0 | 0.00 | 0.00 | 0.00 | 40 | 1008.1 |
| 20260901203235 | 77 | 348 | 0.0 | 0.0 | 0.00 | 0.00 | 0.00 | 40 | 1007.8 |
| 20260901202048 | 76 | 350 | 0.0 | 0.0 | 0.00 | 0.00 | 0.00 | 40 | 1007.2 |
| 20260901200907 | 76 | 355 | 0.0 | 0.0 | 0.00 | 0.00 | 0.00 | 38 | 1007.2 |
| 20260901195706 | 76 | 348 | 0.0 | 0.0 | 0.00 | 0.00 | 0.00 | 40 | 1007.2 |
| 20260901194524 | 76 | 316 | 0.0 | 0.0 | 0.00 | 0.00 | 0.00 | 38 | 1007.2 |
| 20260901193339 | 77 | 19 | 0.0 | 0.0 | 0.00 | 0.00 | 0.00 | 38 | 1007.3 |
| 20260901192104 | 76 | 18 | 0.0 | 0.0 | 0.00 | 0.00 | 0.00 | 38 | 1007.3 |
| 20260901190920 | 77 | 42 | 0.0 | 0.0 | 0.00 | 0.00 | 0.00 | 39 | 1007.3 |
| 20260901185656 | 76 | 49 | 3.0 | 15.0 | 0.00 | 0.00 | 0.00 | 39 | 1007.2 |
| 20260901184511 | 74 | 38 | 1.0 | 12.0 | 0.00 | 0.00 | 0.00 | 41 | 1007.4 |
| 20260901183338 | 74 | 46 | 2.0 | 12.0 | 0.00 | 0.00 | 0.00 | 42 | 1007.4 |
| 20260901182143 | 73 | 47 | 0.0 | 9.0 | 0.00 | 0.00 | 0.00 | 43 | 1007.7 |
| 20260901175603 | 71 | 43 | 4.0 | 16.0 | 0.00 | 0.00 | 0.00 | 47 | 1007.6 |
| 20260901174347 | 70 | 5 | 2.0 | 10.0 | 0.00 | 0.00 | 0.00 | 48 | 1008.0 |
| 20260901173109 | 69 | 24 | 3.0 | 13.0 | 0.00 | 0.00 | 0.00 | 51 | 1008.0 |
| 20260901170548 | 68 | 18 | 1.0 | 7.0 | 0.00 | 0.00 | 0.00 | 53 | 1008.5 |
| 20260901165323 | 67 | 29 | 3.0 | 17.0 | 0.00 | 0.00 | 0.00 | 55 | 1008.6 |
| 20260901164105 | 66 | 40 | 3.0 | 15.0 | 0.00 | 0.00 | 0.00 | 55 | 1008.7 |